Powrót do katalogu

FENGYUN 1C DEB

AktywnyPO
NORAD 32207·DEBRIS·🇨🇳 China

Wystrzelony May 10, 1999 z Taiyuan Satellite Launch Center

Loading…

Następne Przeloty (najbliższe 24 godziny)

TLE

Starzejące sięSource: Space-Track

Epoka: Sep 5, 2026, 18:59 UTC

1 32207U 99025CVD 26248.79109786  .00000457  00000-0  15634-3 0  9996
2 32207  99.8797 253.0961 0085264  92.0242  81.8670 14.40147173681507

Śledź FENGYUN 1C DEB w czasie rzeczywistym z AllMySat

Download on the App Store